Terre Haute, IN

1:03 AM EST on December 06, 2019 (GMT -0500)
Terre Haute International-Hulman

Weather History for KHUF - October, 2019

Change the Weather History Date:

Saturday, October 5, 2019

  Actual Average Record
Temperature  
Mean Temperature 62 °F 58 °F  
Max Temperature 77 °F 70 °F 88 °F (1967)
Min Temperature 46 °F 46 °F 29 °F (1968)
Degree Days  
Heating Degree Days 3 8  
Month to date heating degree days 8 37  
Since 1 July heating degree days 10 115  
Cooling Degree Days 0 1  
Month to date cooling degree days 34 5  
Year to date cooling degree days 1298 983  
Growing Degree Days 10 (Base 50)    
Moisture  
Dew Point 48 °F    
Average Humidity 65    
Maximum Humidity 93    
Minimum Humidity 36    
Precipitation  
Precipitation T in 0.11 in 1.53 in (1998)
Month to date precipitation T 0.55  
Year to date precipitation 37.93 35.25  
Sea Level Pressure  
Sea Level Pressure 30.09 in    
Wind  
Wind Speed 6 mph (ESE)    
Max Wind Speed 14 mph    
Max Gust Speed 19 mph    
Visibility 10 miles    
Events Rain    
T = Trace of Precipitation, MM = Missing Value Source: NWS Daily Summary

Daily Weather History Graph

Daily Weather History Graph

Search for Another Location

Airport or City:

Astronomy

Oct. 05, 2019 Rise Set
Actual Time 7:49 AM EDT 7:25 PM EDT
Civil Twilight 7:22 AM EDT 7:52 PM EDT
Nautical Twilight 6:51 AM EDT 8:23 PM EDT
Astronomical Twilight 6:19 AM EDT 8:54 PM EDT
Moon 3:12 PM EDT (10/5) No Moon Set
Length of Visible Light 12h 30m
Length of Day
11h 36m
Waxing Crescent, 50% of the Moon is Illuminated
Oct 5
Waxing Crescent
Oct 5
First Quarter
Oct 13
Full
Oct 21
Last Quarter
Oct 27
New

Hourly Weather History & Observations

Time (EDT) Temp. Dew Point Humidity Pressure Visibility Wind Dir Wind Speed Gust Speed Precip Events Conditions
12:53 AM 51.1 °F 45.0 °F 80% 30.24 in 10.0 mi ENE 5.8 mph - N/A   Clear
1:53 AM 50.0 °F 45.0 °F 83% 30.22 in 10.0 mi ENE 5.8 mph - N/A   Clear
2:53 AM 52.0 °F 45.0 °F 77% 30.21 in 10.0 mi East 6.9 mph - N/A   Clear
3:53 AM 52.0 °F 45.0 °F 77% 30.19 in 10.0 mi East 6.9 mph - N/A   Clear
4:53 AM 51.1 °F 45.0 °F 80% 30.19 in 10.0 mi East 6.9 mph - N/A   Clear
5:53 AM 48.0 °F 45.0 °F 89% 30.19 in 10.0 mi East 5.8 mph - N/A   Clear
6:53 AM 46.9 °F 44.1 °F 90% 30.18 in 10.0 mi East 5.8 mph - N/A   Clear
7:53 AM 48.9 °F 45.0 °F 86% 30.19 in 10.0 mi East 4.6 mph - N/A   Clear
8:53 AM 52.0 °F 46.0 °F 80% 30.17 in 10.0 mi East 8.1 mph - N/A   Clear
9:53 AM 55.9 °F 46.9 °F 72% 30.15 in 10.0 mi ESE 11.5 mph - N/A   Clear
10:53 AM 61.0 °F 48.0 °F 62% 30.12 in 10.0 mi ESE 9.2 mph - N/A   Clear
11:53 AM 64.9 °F 48.9 °F 56% 30.10 in 10.0 mi ESE 6.9 mph - N/A   Clear
12:53 PM 70.0 °F 48.9 °F 47% 30.07 in 10.0 mi South 8.1 mph - N/A   Clear
1:53 PM 73.0 °F 48.0 °F 41% 30.05 in 10.0 mi ESE 6.9 mph - N/A   Clear
2:53 PM 75.0 °F 46.9 °F 37% 30.02 in 10.0 mi SSW 8.1 mph - N/A   Clear
3:53 PM 75.9 °F 46.9 °F 36% 30.00 in 10.0 mi Calm Calm - N/A   Clear
4:53 PM 75.9 °F 46.9 °F 36% 29.97 in 10.0 mi South 8.1 mph - N/A   Clear
5:53 PM 75.9 °F 48.0 °F 37% 29.97 in 10.0 mi South 8.1 mph - N/A   Clear
6:53 PM 72.0 °F 48.9 °F 44% 29.96 in 10.0 mi South 4.6 mph - N/A   Scattered Clouds
7:53 PM 70.0 °F 52.0 °F 53% 29.98 in 10.0 mi Calm Calm - N/A   Mostly Cloudy
8:53 PM 66.0 °F 57.0 °F 73% 29.96 in 10.0 mi South 6.9 mph - 0.00 in Rain Light Rain
9:53 PM 66.0 °F 57.0 °F 73% 29.97 in 10.0 mi Calm Calm - 0.00 in   Mostly Cloudy
10:53 PM 63.0 °F 55.0 °F 75% 29.97 in 10.0 mi NNW 4.6 mph - N/A   Partly Cloudy
11:53 PM 64.0 °F 55.9 °F 75% 29.97 in 10.0 mi ESE 3.5 mph - N/A   Mostly Cloudy